RYR6192 LEAL-EDNY

Flight info

Callsign RYR6192
Flight time 1h 56m
Altitude 38000
Route MITOS N851 PTC DCT CDP DCT CHELY DCT LUMAS DCT NIBIK DCT NETUP DCT STP DCT RAPED DCT PIGOS DCT EKSID DCT NOSTA DCT NOPMU DCT ABESI N851 UTAVO DCT SOPER N851 ROLSA ROLSA1F
Aircraft B38M/M-SDE1FGHILORVWXY/HB1

Departure

Time 2026-04-28 16:55
Airport Alicante-Elche Miguel Hernández Airport (LEAL)

Arrival

Time 2026-04-28 18:51
Airport Bodensee Airport Friedrichshafen (EDNY)
Time Latitude Longitude Altitude Speed Heading
2026-04-28 16:16 38.28516 -0.55175 97 ft 0 kts 10°
2026-04-28 16:44 38.28503 -0.55178 96 ft 2 kts
2026-04-28 16:44 38.28486 -0.55178 94 ft 2 kts 356°
2026-04-28 16:44 38.28470 -0.55175 94 ft 2 kts 344°
2026-04-28 16:44 38.28455 -0.55167 93 ft 2 kts 327°
2026-04-28 16:45 38.28442 -0.55153 93 ft 2 kts 308°
2026-04-28 16:45 38.28434 -0.55135 92 ft 2 kts 292°
2026-04-28 16:45 38.28429 -0.55117 92 ft 1 kts 282°
2026-04-28 16:45 38.28428 -0.55112 92 ft 0 kts 281°
2026-04-28 16:48 38.28429 -0.55116 92 ft 2 kts 281°
2026-04-28 16:49 38.28438 -0.55180 96 ft 13 kts 280°
2026-04-28 16:49 38.28457 -0.55309 98 ft 14 kts 280°
2026-04-28 16:49 38.28473 -0.55432 100 ft 14 kts 279°
2026-04-28 16:49 38.28487 -0.55535 102 ft 11 kts 282°
2026-04-28 16:50 38.28459 -0.55599 103 ft 9 kts 192°
2026-04-28 16:50 38.28387 -0.55614 100 ft 8 kts 195°
2026-04-28 16:50 38.28375 -0.55678 98 ft 9 kts 280°
2026-04-28 16:50 38.28388 -0.55770 101 ft 12 kts 280°
2026-04-28 16:51 38.28405 -0.55885 99 ft 14 kts 280°
2026-04-28 16:51 38.28423 -0.56018 101 ft 17 kts 279°
2026-04-28 16:51 38.28444 -0.56173 102 ft 18 kts 280°
2026-04-28 16:51 38.28466 -0.56323 107 ft 16 kts 281°
2026-04-28 16:52 38.28485 -0.56458 110 ft 15 kts 280°
2026-04-28 16:52 38.28503 -0.56585 116 ft 16 kts 281°
2026-04-28 16:52 38.28527 -0.56753 126 ft 23 kts 280°
2026-04-28 16:52 38.28557 -0.56972 135 ft 26 kts 280°
2026-04-28 16:53 38.28587 -0.57187 144 ft 23 kts 280°
2026-04-28 16:53 38.28612 -0.57369 152 ft 16 kts 272°
2026-04-28 16:53 38.28550 -0.57428 152 ft 14 kts 191°
2026-04-28 16:53 38.28466 -0.57440 155 ft 10 kts 170°
2026-04-28 16:54 38.28436 -0.57388 153 ft 10 kts 99°
2026-04-28 16:54 38.28403 -0.57152 146 ft 59 kts 100°
2026-04-28 16:54 38.28287 -0.56320 120 ft 129 kts 100°
2026-04-28 16:54 38.28167 -0.55462 105 ft 164 kts 99°
2026-04-28 16:55 38.27892 -0.53495 908 ft 171 kts 102°
2026-04-28 16:55 38.27649 -0.51967 1527 ft 184 kts 102°
2026-04-28 16:55 38.27455 -0.50241 2036 ft 206 kts 91°
2026-04-28 16:55 38.27690 -0.48409 2724 ft 218 kts 66°
2026-04-28 16:56 38.28510 -0.46787 3630 ft 220 kts 54°
2026-04-28 16:56 38.29425 -0.45125 4317 ft 236 kts 56°
2026-04-28 16:56 38.30365 -0.43379 5160 ft 239 kts 56°
2026-04-28 16:56 38.31296 -0.41634 6062 ft 243 kts 56°
2026-04-28 16:57 38.32250 -0.39825 6912 ft 248 kts 58°
2026-04-28 16:57 38.33011 -0.37769 7459 ft 266 kts 69°
2026-04-28 16:57 38.33720 -0.35493 7989 ft 284 kts 68°
2026-04-28 16:57 38.34463 -0.33133 8821 ft 287 kts 68°
2026-04-28 16:58 38.35205 -0.30789 9664 ft 291 kts 68°
2026-04-28 16:58 38.35976 -0.28373 10405 ft 299 kts 67°
2026-04-28 16:58 38.36817 -0.25854 10870 ft 317 kts 67°
2026-04-28 16:58 38.37694 -0.23228 11536 ft 326 kts 67°
2026-04-28 16:59 38.38583 -0.20559 12416 ft 328 kts 67°
2026-04-28 16:59 38.39480 -0.17860 13236 ft 333 kts 67°
2026-04-28 16:59 38.40381 -0.15149 14067 ft 337 kts 67°
2026-04-28 16:59 38.41298 -0.12386 14898 ft 341 kts 67°
2026-04-28 17:00 38.42229 -0.09578 15724 ft 345 kts 67°
2026-04-28 17:00 38.43169 -0.06738 16510 ft 349 kts 67°
2026-04-28 17:00 38.44124 -0.03854 17264 ft 353 kts 67°
2026-04-28 17:00 38.45077 -0.00942 17956 ft 358 kts 68°
2026-04-28 17:01 38.46016 0.01979 18630 ft 361 kts 68°
2026-04-28 17:01 38.46978 0.04965 19292 ft 365 kts 68°
2026-04-28 17:01 38.47948 0.07983 19925 ft 369 kts 68°
2026-04-28 17:01 38.48929 0.11035 20543 ft 372 kts 68°
2026-04-28 17:02 38.49915 0.14104 21131 ft 376 kts 68°
2026-04-28 17:02 38.50573 0.16156 21518 ft 378 kts 68°
2026-04-28 17:02 38.51912 0.20336 22274 ft 382 kts 68°
2026-04-28 17:02 38.52914 0.23467 22824 ft 385 kts 68°
2026-04-28 17:03 38.54960 0.29869 23910 ft 392 kts 68°
2026-04-28 17:03 38.55643 0.32011 24261 ft 394 kts 68°
2026-04-28 17:03 38.56688 0.35287 24781 ft 397 kts 68°
2026-04-28 17:04 38.58787 0.41885 25767 ft 404 kts 68°
2026-04-28 17:04 38.59835 0.45183 26238 ft 407 kts 68°
2026-04-28 17:05 38.61976 0.51947 27146 ft 412 kts 68°
2026-04-28 17:05 38.63058 0.55370 27583 ft 415 kts 68°
2026-04-28 17:05 38.64146 0.58815 28015 ft 418 kts 68°
2026-04-28 17:06 38.66336 0.65769 28819 ft 424 kts 68°
2026-04-28 17:06 38.67429 0.69242 29219 ft 426 kts 68°
2026-04-28 17:06 38.69655 0.76332 29972 ft 431 kts 68°
2026-04-28 17:07 38.70776 0.79909 30336 ft 434 kts 68°
2026-04-28 17:07 38.71902 0.83505 30692 ft 436 kts 68°
2026-04-28 17:07 38.73021 0.87088 31038 ft 439 kts 68°
2026-04-28 17:07 38.74161 0.90737 31379 ft 441 kts 68°
2026-04-28 17:08 38.75305 0.94408 31718 ft 443 kts 68°
2026-04-28 17:08 38.76421 0.97992 32039 ft 446 kts 68°
2026-04-28 17:08 38.77605 1.01801 32367 ft 448 kts 68°
2026-04-28 17:08 38.78748 1.05481 32677 ft 450 kts 68°
2026-04-28 17:09 38.79911 1.09233 32988 ft 453 kts 68°
2026-04-28 17:09 38.81079 1.13003 33289 ft 455 kts 68°
2026-04-28 17:09 38.82238 1.16751 33586 ft 457 kts 68°
2026-04-28 17:09 38.83412 1.20552 33881 ft 459 kts 69°
2026-04-28 17:10 38.84588 1.24367 34193 ft 461 kts 69°
2026-04-28 17:10 38.85767 1.28195 34586 ft 460 kts 69°
2026-04-28 17:10 38.86941 1.32014 34975 ft 459 kts 69°
2026-04-28 17:10 38.88097 1.35775 35345 ft 458 kts 69°
2026-04-28 17:11 38.89265 1.39583 35707 ft 458 kts 69°
2026-04-28 17:11 38.90431 1.43390 36061 ft 457 kts 69°
2026-04-28 17:11 38.91582 1.47190 36379 ft 456 kts 69°
2026-04-28 17:11 38.92709 1.51016 36685 ft 456 kts 69°
2026-04-28 17:12 38.93836 1.54835 36958 ft 456 kts 69°
2026-04-28 17:12 38.94950 1.58609 37227 ft 456 kts 69°
2026-04-28 17:12 38.96078 1.62433 37497 ft 456 kts 69°
2026-04-28 17:12 38.97205 1.66259 37753 ft 456 kts 69°
2026-04-28 17:13 38.98328 1.70080 37953 ft 457 kts 69°
2026-04-28 17:13 38.99451 1.73904 38019 ft 457 kts 69°
2026-04-28 17:13 39.01676 1.81494 38003 ft 455 kts 69°
2026-04-28 17:14 39.03907 1.89132 38001 ft 455 kts 69°
2026-04-28 17:14 39.06131 1.96763 38000 ft 455 kts 70°
2026-04-28 17:15 39.08341 2.04370 38000 ft 455 kts 70°
2026-04-28 17:15 39.10557 2.12020 38000 ft 455 kts 70°
2026-04-28 17:16 39.12767 2.19669 38000 ft 455 kts 70°
2026-04-28 17:16 39.14963 2.27294 38000 ft 455 kts 70°
2026-04-28 17:17 39.17164 2.34959 38000 ft 455 kts 70°
2026-04-28 17:17 39.19345 2.42572 38000 ft 455 kts 70°
2026-04-28 17:18 39.21538 2.50253 38000 ft 455 kts 70°
2026-04-28 17:18 39.23726 2.57930 38000 ft 455 kts 70°
2026-04-28 17:19 39.25894 2.65582 38000 ft 455 kts 70°
2026-04-28 17:19 39.28056 2.73224 38000 ft 455 kts 70°
2026-04-28 17:20 39.29862 2.79620 38000 ft 455 kts 70°
2026-04-28 17:20 39.32392 2.88607 38000 ft 455 kts 70°
2026-04-28 17:21 39.34542 2.96271 38000 ft 455 kts 70°
2026-04-28 17:22 39.37775 3.07834 38000 ft 455 kts 70°
2026-04-28 17:22 39.39906 3.15484 38001 ft 455 kts 70°
2026-04-28 17:23 39.42414 3.22971 37985 ft 453 kts 54°
2026-04-28 17:23 39.44528 3.26000 37999 ft 453 kts 39°
2026-04-28 17:23 39.49904 3.30213 37997 ft 455 kts 28°
2026-04-28 17:24 39.55519 3.34027 38001 ft 455 kts 27°
2026-04-28 17:24 39.61170 3.37767 38000 ft 455 kts 27°
2026-04-28 17:25 39.69607 3.43376 37996 ft 455 kts 31°
2026-04-28 17:26 39.75026 3.47565 38002 ft 455 kts 30°
2026-04-28 17:26 39.80499 3.51737 38000 ft 455 kts 30°
2026-04-28 17:27 39.85941 3.55880 38000 ft 455 kts 30°
2026-04-28 17:27 39.91422 3.60061 38000 ft 455 kts 30°
2026-04-28 17:28 39.96862 3.64218 38000 ft 455 kts 30°
2026-04-28 17:28 40.05069 3.70505 38000 ft 455 kts 30°
2026-04-28 17:29 40.10498 3.74673 38000 ft 455 kts 30°
2026-04-28 17:30 40.18672 3.80964 38000 ft 455 kts 30°
2026-04-28 17:30 40.26874 3.87293 38000 ft 455 kts 30°
2026-04-28 17:31 40.35025 3.93602 38000 ft 455 kts 30°
2026-04-28 17:32 40.43180 3.99932 38000 ft 455 kts 30°
2026-04-28 17:32 40.48645 4.04183 38000 ft 455 kts 30°
2026-04-28 17:33 40.54065 4.08409 38000 ft 455 kts 31°
2026-04-28 17:33 40.58594 4.11945 38000 ft 455 kts 31°
2026-04-28 17:34 40.64931 4.16903 38000 ft 455 kts 31°
2026-04-28 17:34 40.70385 4.21178 38000 ft 455 kts 31°
2026-04-28 17:35 40.75823 4.25450 38000 ft 455 kts 31°
2026-04-28 17:35 40.81225 4.29702 38000 ft 455 kts 31°
2026-04-28 17:36 40.86680 4.34002 38000 ft 455 kts 31°
2026-04-28 17:36 40.92100 4.38285 38000 ft 455 kts 31°
2026-04-28 17:37 40.97534 4.42584 38000 ft 455 kts 31°
2026-04-28 17:37 41.02951 4.46879 38000 ft 455 kts 31°
2026-04-28 17:38 41.08572 4.50562 37986 ft 452 kts 12°
2026-04-28 17:38 41.14775 4.52217 37993 ft 454 kts 11°
2026-04-28 17:39 41.20994 4.53782 38000 ft 454 kts 10°
2026-04-28 17:40 41.30296 4.56061 38000 ft 454 kts 10°
2026-04-28 17:40 41.36512 4.57585 38000 ft 454 kts 10°
2026-04-28 17:41 41.42738 4.59113 38000 ft 454 kts 10°
2026-04-28 17:41 41.48929 4.60637 38000 ft 454 kts 10°
2026-04-28 17:42 41.55145 4.62169 38000 ft 454 kts 10°
2026-04-28 17:42 41.61336 4.63698 38000 ft 454 kts 10°
2026-04-28 17:43 41.67563 4.65239 38000 ft 454 kts 10°
2026-04-28 17:43 41.73703 4.67192 37980 ft 453 kts 25°
2026-04-28 17:44 41.79236 4.71178 37992 ft 454 kts 28°
2026-04-28 17:44 41.84755 4.75262 38000 ft 454 kts 29°
2026-04-28 17:45 41.90276 4.79415 38000 ft 454 kts 29°
2026-04-28 17:45 41.95802 4.83586 38000 ft 454 kts 29°
2026-04-28 17:46 42.01286 4.87735 38000 ft 454 kts 29°
2026-04-28 17:46 42.06813 4.91924 38000 ft 454 kts 29°
2026-04-28 17:47 42.12290 4.96084 38000 ft 454 kts 29°
2026-04-28 17:47 42.17797 5.00275 38000 ft 454 kts 29°
2026-04-28 17:48 42.23302 5.04473 38000 ft 454 kts 29°
2026-04-28 17:48 42.28780 5.08658 38000 ft 454 kts 29°
2026-04-28 17:49 42.34293 5.12879 38000 ft 454 kts 29°
2026-04-28 17:49 42.39778 5.17088 38000 ft 454 kts 29°
2026-04-28 17:50 42.45277 5.21315 38000 ft 454 kts 30°
2026-04-28 17:50 42.50787 5.25560 38000 ft 454 kts 30°
2026-04-28 17:51 42.56252 5.29779 38000 ft 454 kts 30°
2026-04-28 17:51 42.61746 5.34027 38000 ft 454 kts 30°
2026-04-28 17:52 42.67212 5.38291 37997 ft 454 kts 33°
2026-04-28 17:52 42.69650 5.40993 38010 ft 452 kts 44°
2026-04-28 17:52 42.73543 5.45804 37997 ft 454 kts 42°
2026-04-28 17:53 42.78987 5.52554 38000 ft 454 kts 42°
2026-04-28 17:53 42.82868 5.57391 38000 ft 454 kts 42°
2026-04-28 17:54 42.87534 5.63219 38000 ft 454 kts 43°
2026-04-28 17:54 42.92178 5.69032 38000 ft 454 kts 43°
2026-04-28 17:55 42.96846 5.74887 38000 ft 454 kts 43°
2026-04-28 17:55 43.01042 5.81197 37985 ft 451 kts 62°
2026-04-28 17:56 43.03446 5.89147 37991 ft 454 kts 69°
2026-04-28 17:56 43.05644 5.97237 38000 ft 454 kts 70°
2026-04-28 17:57 43.07775 6.05332 38000 ft 454 kts 70°
2026-04-28 17:57 43.09901 6.13480 38001 ft 454 kts 70°
2026-04-28 17:58 43.12023 6.21639 38001 ft 454 kts 70°
2026-04-28 17:58 43.14125 6.29750 38000 ft 454 kts 71°
2026-04-28 17:59 43.16236 6.37922 38000 ft 454 kts 71°
2026-04-28 17:59 43.18325 6.46041 37999 ft 454 kts 71°
2026-04-28 18:00 43.20425 6.54224 38000 ft 454 kts 71°
2026-04-28 18:00 43.23029 6.62051 37999 ft 451 kts 53°
2026-04-28 18:01 43.26675 6.69054 37999 ft 454 kts 54°
2026-04-28 18:01 43.30373 6.76105 38000 ft 454 kts 54°
2026-04-28 18:02 43.34061 6.83108 38000 ft 454 kts 54°
2026-04-28 18:02 43.37766 6.90157 38000 ft 454 kts 54°
2026-04-28 18:03 43.41446 6.97174 38000 ft 454 kts 54°
2026-04-28 18:03 43.45138 7.04231 38000 ft 454 kts 54°
2026-04-28 18:04 43.48806 7.11258 38000 ft 454 kts 54°
2026-04-28 18:04 43.52494 7.18341 38000 ft 454 kts 54°
2026-04-28 18:05 43.55553 7.24227 38000 ft 454 kts 54°
2026-04-28 18:05 43.59830 7.32479 38000 ft 454 kts 54°
2026-04-28 18:06 43.63503 7.39584 38000 ft 454 kts 54°
2026-04-28 18:06 43.67149 7.46656 38000 ft 454 kts 54°
2026-04-28 18:07 43.70818 7.53788 38000 ft 454 kts 54°
2026-04-28 18:07 43.74462 7.60889 38000 ft 454 kts 54°
2026-04-28 18:08 43.78113 7.68023 38000 ft 454 kts 54°
2026-04-28 18:08 43.81827 7.75020 37986 ft 453 kts 45°
2026-04-28 18:09 43.86703 7.80549 37992 ft 453 kts 38°
2026-04-28 18:09 43.91675 7.85960 38002 ft 454 kts 38°
2026-04-28 18:10 43.96987 7.90470 38002 ft 450 kts 19°
2026-04-28 18:10 44.02906 7.93519 37994 ft 453 kts 20°
2026-04-28 18:11 44.08812 7.96505 38001 ft 453 kts 20°
2026-04-28 18:11 44.14758 7.99487 38000 ft 453 kts 19°
2026-04-28 18:12 44.20705 8.02474 38001 ft 453 kts 19°
2026-04-28 18:12 44.26630 8.05456 38000 ft 453 kts 20°
2026-04-28 18:13 44.32584 8.08459 38001 ft 453 kts 20°
2026-04-28 18:13 44.38476 8.11437 38000 ft 453 kts 20°
2026-04-28 18:14 44.44418 8.14446 37999 ft 453 kts 20°
2026-04-28 18:14 44.50329 8.17447 37999 ft 453 kts 20°
2026-04-28 18:15 44.56272 8.20470 38001 ft 453 kts 20°
2026-04-28 18:15 44.62216 8.23500 38000 ft 453 kts 20°
2026-04-28 18:16 44.68105 8.26510 38000 ft 453 kts 20°
2026-04-28 18:16 44.74043 8.29550 38001 ft 453 kts 20°
2026-04-28 18:17 44.79976 8.32595 38000 ft 453 kts 20°
2026-04-28 18:17 44.85865 8.35624 38000 ft 453 kts 20°
2026-04-28 18:18 44.91807 8.38686 38001 ft 453 kts 20°
2026-04-28 18:18 44.96733 8.41230 38000 ft 453 kts 20°
2026-04-28 18:19 45.03663 8.44817 38000 ft 453 kts 20°
2026-04-28 18:19 45.09564 8.47879 38000 ft 453 kts 20°
2026-04-28 18:20 45.15475 8.50952 38000 ft 453 kts 20°
2026-04-28 18:20 45.21385 8.54032 38000 ft 453 kts 20°
2026-04-28 18:21 45.27308 8.57126 38000 ft 453 kts 20°
2026-04-28 18:21 45.33194 8.60207 38000 ft 453 kts 20°
2026-04-28 18:22 45.39108 8.63318 38347 ft 444 kts 16°
2026-04-28 18:22 45.41990 8.64828 38148 ft 436 kts 16°
2026-04-28 18:22 45.44783 8.66295 38011 ft 431 kts 16°
2026-04-28 18:23 45.50413 8.69260 38025 ft 432 kts 16°
2026-04-28 18:23 45.56037 8.72230 38018 ft 427 kts 15°
2026-04-28 18:24 45.60674 8.74683 38021 ft 423 kts 15°
2026-04-28 18:24 45.67092 8.78085 38019 ft 423 kts 15°
2026-04-28 18:25 45.72594 8.81009 37786 ft 417 kts 15°
2026-04-28 18:25 45.75316 8.82458 37120 ft 418 kts 15°
2026-04-28 18:26 45.80714 8.85336 36222 ft 410 kts 16°
2026-04-28 18:26 45.83345 8.86740 35779 ft 406 kts 16°
2026-04-28 18:26 45.85987 8.88152 35334 ft 403 kts 16°
2026-04-28 18:26 45.88611 8.89557 34912 ft 400 kts 16°
2026-04-28 18:27 45.91218 8.90952 34496 ft 397 kts 16°
2026-04-28 18:27 45.93803 8.92338 34066 ft 394 kts 16°
2026-04-28 18:27 45.96370 8.93715 33574 ft 391 kts 16°
2026-04-28 18:27 45.98880 8.95062 33122 ft 389 kts 16°
2026-04-28 18:28 46.01411 8.96422 32637 ft 387 kts 16°
2026-04-28 18:28 46.03930 8.97777 32181 ft 385 kts 16°
2026-04-28 18:28 46.06431 8.99123 31719 ft 384 kts 16°
2026-04-28 18:28 46.08957 9.00485 31056 ft 389 kts 16°
2026-04-28 18:29 46.11520 9.01868 30340 ft 396 kts 17°
2026-04-28 18:29 46.14094 9.03250 29644 ft 399 kts 15°
2026-04-28 18:29 46.16776 9.04025 29169 ft 386 kts 356°
2026-04-28 18:29 46.19432 9.03740 28697 ft 381 kts 351°
2026-04-28 18:30 46.22079 9.03425 28202 ft 379 kts 352°
2026-04-28 18:30 46.22933 9.03320 28069 ft 378 kts 351°
2026-04-28 18:30 46.27277 9.02762 27353 ft 374 kts 351°
2026-04-28 18:30 46.29862 9.02419 26939 ft 371 kts 351°
2026-04-28 18:31 46.32426 9.02076 26519 ft 369 kts 351°
2026-04-28 18:31 46.34981 9.01733 26077 ft 367 kts 351°
2026-04-28 18:31 46.37517 9.01393 25695 ft 365 kts 351°
2026-04-28 18:31 46.40039 9.01053 25305 ft 363 kts 351°
2026-04-28 18:32 46.42515 9.00722 24943 ft 361 kts 351°
2026-04-28 18:32 46.45011 9.00388 24574 ft 358 kts 351°
2026-04-28 18:32 46.47490 9.00057 24161 ft 357 kts 351°
2026-04-28 18:32 46.49959 8.99726 23729 ft 358 kts 351°
2026-04-28 18:33 46.52453 8.99391 23212 ft 359 kts 351°
2026-04-28 18:33 46.54926 8.99059 22834 ft 356 kts 351°
2026-04-28 18:33 46.57395 8.98728 22431 ft 355 kts 351°
2026-04-28 18:33 46.59842 8.98398 21999 ft 352 kts 351°
2026-04-28 18:34 46.62253 8.98072 21554 ft 350 kts 351°
2026-04-28 18:34 46.64679 8.97744 21064 ft 351 kts 351°
2026-04-28 18:34 46.67115 8.97414 20535 ft 352 kts 352°
2026-04-28 18:34 46.69548 8.97084 20192 ft 349 kts 351°
2026-04-28 18:35 46.71972 8.96756 19783 ft 348 kts 352°
2026-04-28 18:35 46.74381 8.96428 19352 ft 347 kts 352°
2026-04-28 18:35 46.76761 8.96105 18896 ft 348 kts 352°
2026-04-28 18:35 46.79178 8.95776 18437 ft 350 kts 352°
2026-04-28 18:36 46.81610 8.95445 17898 ft 352 kts 352°
2026-04-28 18:36 46.84041 8.95114 17499 ft 349 kts 352°
2026-04-28 18:36 46.86450 8.94786 17057 ft 346 kts 352°
2026-04-28 18:36 46.88842 8.94458 16585 ft 345 kts 352°
2026-04-28 18:37 46.91234 8.94130 16145 ft 344 kts 352°
2026-04-28 18:37 46.92813 8.93914 15855 ft 344 kts 352°
2026-04-28 18:37 46.95197 8.93587 15422 ft 342 kts 352°
2026-04-28 18:37 46.98326 8.93156 14949 ft 339 kts 352°
2026-04-28 18:38 46.99880 8.92943 14765 ft 335 kts 352°
2026-04-28 18:38 47.02171 8.92627 14554 ft 328 kts 352°
2026-04-28 18:38 47.04440 8.92314 14313 ft 322 kts 352°
2026-04-28 18:38 47.06656 8.92009 14143 ft 315 kts 352°
2026-04-28 18:39 47.08799 8.91713 14131 ft 302 kts 352°
2026-04-28 18:39 47.10815 8.91434 14127 ft 288 kts 352°
2026-04-28 18:39 47.12763 8.91165 14146 ft 274 kts 352°
2026-04-28 18:39 47.14647 8.90904 13994 ft 271 kts 352°
2026-04-28 18:40 47.16530 8.90644 13747 ft 271 kts 352°
2026-04-28 18:40 47.18416 8.90382 13475 ft 271 kts 352°
2026-04-28 18:40 47.20270 8.90125 13228 ft 270 kts 352°
2026-04-28 18:40 47.22158 8.89864 13063 ft 267 kts 352°
2026-04-28 18:41 47.23991 8.89609 13067 ft 266 kts 352°
2026-04-28 18:41 47.25844 8.89352 13081 ft 267 kts 352°
2026-04-28 18:41 47.27696 8.89472 13040 ft 268 kts 13°
2026-04-28 18:41 47.29344 8.90729 12693 ft 273 kts 40°
2026-04-28 18:42 47.30512 8.92927 12350 ft 276 kts 58°
2026-04-28 18:42 47.31485 8.95361 12044 ft 275 kts 58°
2026-04-28 18:42 47.32458 8.97797 11757 ft 274 kts 58°
2026-04-28 18:42 47.33419 9.00221 11465 ft 273 kts 58°
2026-04-28 18:43 47.34374 9.02642 11191 ft 271 kts 58°
2026-04-28 18:43 47.35303 9.05004 11013 ft 268 kts 58°
2026-04-28 18:43 47.36244 9.07404 10673 ft 270 kts 59°
2026-04-28 18:43 47.37162 9.09809 10424 ft 268 kts 59°
2026-04-28 18:44 47.38077 9.12204 10121 ft 267 kts 59°
2026-04-28 18:44 47.39885 9.16928 9570 ft 264 kts 59°
2026-04-28 18:44 47.40792 9.19277 9267 ft 262 kts 57°
2026-04-28 18:45 47.41989 9.21192 9014 ft 256 kts 31°
2026-04-28 18:45 47.43611 9.22204 8644 ft 252 kts 14°
2026-04-28 18:45 47.45284 9.22886 8233 ft 251 kts 14°
2026-04-28 18:45 47.46967 9.23545 7820 ft 250 kts 13°
2026-04-28 18:46 47.48641 9.24191 7430 ft 248 kts 13°
2026-04-28 18:46 47.50307 9.24817 7058 ft 245 kts 13°
2026-04-28 18:46 47.51958 9.25420 6700 ft 242 kts 13°
2026-04-28 18:46 47.53587 9.26000 6344 ft 238 kts 13°
2026-04-28 18:47 47.55176 9.26599 5959 ft 233 kts 21°
2026-04-28 18:47 47.56588 9.27675 5622 ft 222 kts 33°
2026-04-28 18:47 47.57869 9.28871 5253 ft 214 kts 34°
2026-04-28 18:47 47.58961 9.30306 4760 ft 211 kts 52°
2026-04-28 18:48 47.59763 9.32105 4322 ft 207 kts 61°
2026-04-28 18:48 47.60454 9.33940 3950 ft 200 kts 61°
2026-04-28 18:48 47.61130 9.35705 3627 ft 192 kts 61°
2026-04-28 18:48 47.61783 9.37392 3352 ft 184 kts 60°
2026-04-28 18:49 47.62402 9.38988 3096 ft 179 kts 60°
2026-04-28 18:49 47.62819 9.40058 2927 ft 172 kts 60°
2026-04-28 18:49 47.63551 9.41943 2657 ft 147 kts 60°
2026-04-28 18:49 47.64049 9.43224 2435 ft 141 kts 60°
2026-04-28 18:50 47.64539 9.44484 2250 ft 142 kts 60°
2026-04-28 18:50 47.65038 9.45765 2091 ft 142 kts 59°
2026-04-28 18:50 47.65540 9.47035 1861 ft 142 kts 59°
2026-04-28 18:50 47.66011 9.48274 1648 ft 139 kts 59°
2026-04-28 18:51 47.66507 9.49539 1476 ft 143 kts 58°
2026-04-28 18:51 47.66995 9.50794 1379 ft 130 kts 59°
2026-04-28 18:51 47.67323 9.51639 1374 ft 61 kts 60°
2026-04-28 18:51 47.67484 9.52059 1376 ft 33 kts 60°
2026-04-28 18:52 47.67528 9.52201 1376 ft 9 kts 101°
2026-04-28 18:52 47.67494 9.52286 1375 ft 11 kts 123°
2026-04-28 18:52 47.67449 9.52348 1378 ft 2 kts 156°
2026-04-28 18:52 47.67427 9.52365 1375 ft 4 kts 143°
2026-04-28 18:53 47.67409 9.52395 1377 ft 1 kts 131°
2026-04-28 18:53 47.67402 9.52404 1377 ft 1 kts 141°
2026-04-28 18:54 47.67400 9.52404 1374 ft 0 kts 159°
2026-04-28 18:54 47.67394 9.52400 1374 ft 3 kts 199°
2026-04-28 18:54 47.67376 9.52396 1378 ft 1 kts 177°